This is the latest recevied weather packets stored in our database for station/object SP1BMW-13. If no packets are shown the sender has not sent any weather packets the latest 10 day(s).
| Time | Temp. | Humidity | Pressure | Rain* | Wind** | Luminosity | Snow |
|---|---|---|---|---|---|---|---|
| 1777727304 | 26.11° C | 28% | 1018.3 hPa | 0 mm | 0.45 m/s, 207° | 588 W/m² | - |
| 1777727245 | 26.11° C | 27% | 1018.2 hPa | 0 mm | 0.45 m/s, 286° | 590 W/m² | - |
| 1777727184 | 26.11° C | 27% | 1018.3 hPa | 0 mm | 2.24 m/s, 272° | 591 W/m² | - |
| 1777727124 | 26.11° C | 27% | 1018.2 hPa | 0 mm | 0 m/s | 592 W/m² | - |
| 1777727065 | 26.11° C | 26% | 1018.3 hPa | 0 mm | 1.34 m/s, 130° | 595 W/m² | - |
| 1777727005 | 26.11° C | 26% | 1018.1 hPa | 0 mm | 1.79 m/s, 137° | 596 W/m² | - |
| 1777726945 | 26.11° C | 27% | 1018.4 hPa | 0 mm | 0.45 m/s, 95° | 599 W/m² | - |
| 1777726886 | 26.11° C | 26% | 1018.3 hPa | 0 mm | 0.89 m/s, 311° | 600 W/m² | - |
| 1777726825 | 26.11° C | 26% | 1018.4 hPa | 0 mm | 2.68 m/s, 231° | 602 W/m² | - |
| 1777726765 | 26.11° C | 25% | 1018.4 hPa | 0 mm | 0.89 m/s, 269° | 604 W/m² | - |
| 1777726705 | 26.11° C | 25% | 1018.3 hPa | 0 mm | 1.79 m/s, 198° | 606 W/m² | - |
| 1777726644 | 26.11° C | 26% | 1018.4 hPa | 0 mm | 1.34 m/s, 207° | 607 W/m² | - |
| 1777726585 | 26.11° C | 26% | 1018.3 hPa | 0 mm | 0.89 m/s, 49° | 609 W/m² | - |
| 1777726525 | 26.11° C | 27% | 1018.6 hPa | 0 mm | 1.34 m/s, 103° | 611 W/m² | - |
| 1777726464 | 26.11° C | 27% | 1018.4 hPa | 0 mm | 0.45 m/s, 23° | 614 W/m² | - |
| 1777726404 | 26.11° C | 28% | 1018.5 hPa | 0 mm | 0.89 m/s, 277° | 616 W/m² | - |
| 1777726344 | 26.11° C | 26% | 1018.4 hPa | 0 mm | 1.79 m/s, 151° | 618 W/m² | - |
| 1777726285 | 26.11° C | 26% | 1018.4 hPa | 0 mm | 0.45 m/s, 296° | 621 W/m² | - |
| 1777726225 | 26.11° C | 27% | 1018.4 hPa | 0 mm | 1.34 m/s, 84° | 622 W/m² | - |
| 1777726165 | 26.11° C | 27% | 1018.5 hPa | 0 mm | 0.89 m/s, 335° | 623 W/m² | - |
| 1777726104 | 26.11° C | 26% | 1018.7 hPa | 0 mm | 1.34 m/s, 107° | 625 W/m² | - |
| 1777726045 | 26.11° C | 26% | 1018.6 hPa | 0 mm | 2.24 m/s, 117° | 628 W/m² | - |
| 1777725985 | 26.11° C | 27% | 1018.7 hPa | 0 mm | 0.45 m/s, 308° | 629 W/m² | - |
| 1777725925 | 25.56° C | 26% | 1018.5 hPa | 0 mm | 0.89 m/s, 98° | 629 W/m² | - |
| 1777725865 | 25.56° C | 27% | 1018.6 hPa | 0 mm | 0.89 m/s, 213° | 632 W/m² | - |
* Rain latest hour (hover to see other rain measurements)
** Current wind speed in m/s (hover to see current wind gust speed)